Location: Sungai Ketit
(2.6833°N, 113.2333°E)
Time: 19:42:09
(UTC+00:00)

Helios 1B rocket - Pass Details

Date: 23 May 2024
Orbit: 533 x 545 km, 98.2° (Epoch: 19 June)

Event Time Altitude Azimuth Distance (km) Brightness Sun altitude
Rises 11:20:09 0° 187° (S) 2,710 5.7 -12.1°
Reaches altitude 10° 11:22:30 10° 199° (SSW) 1,816 4.9 -12.7°
Maximum altitude 11:25:51 27° 258° (WSW) 1,065 4.4 -13.5°
Drops below altitude 10° 11:29:11 10° 317° (NW) 1,809 6.0 -14.2°
Sets 11:31:32 0° 329° (NNW) 2,697 6.7 -14.8°
